| time (UTC) | temp F | wind direction | speed MPH | gust MPH | rain 1hr in | rain 24hr in | rain mn in | humidity % | barometer mb |
| 20260906183215 | 80 | 165 | 6.0 | 8.0 | 0.00 | 0.00 | 0.00 | 74 | 1016.6 |
| 20260906182223 | 79 | 152 | 2.0 | 4.0 | 0.00 | 0.00 | 0.00 | 76 | 1016.9 |
| 20260906181215 | 79 | 165 | 4.0 | 8.0 | 0.00 | 0.00 | 0.00 | 76 | 1016.8 |
| 20260906180224 | 79 | 158 | 5.0 | 9.0 | 0.00 | 0.00 | 0.00 | 77 | 1016.7 |
| 20260906175216 | 80 | 174 | 6.0 | 9.0 | 0.00 | 0.00 | 0.00 | 75 | 1016.5 |
| 20260906174224 | 80 | 163 | 5.0 | 9.0 | 0.00 | 0.00 | 0.00 | 76 | 1016.6 |
| 20260906173215 | 80 | 141 | 6.0 | 11.0 | 0.00 | 0.00 | 0.00 | 77 | 1016.7 |
| 20260906172223 | 78 | 144 | 4.0 | 9.0 | 0.00 | 0.00 | 0.00 | 78 | 1016.8 |
| 20260906171237 | 79 | 175 | 6.0 | 11.0 | 0.00 | 0.00 | 0.00 | 77 | 1017.0 |
| 20260906170224 | 79 | 131 | 6.0 | 10.0 | 0.00 | 0.00 | 0.00 | 76 | 1017.0 |
| 20260906165215 | 78 | 137 | 3.0 | 10.0 | 0.00 | 0.00 | 0.00 | 79 | 1017.1 |
| 20260906164243 | 78 | 165 | 3.0 | 6.0 | 0.00 | 0.00 | 0.00 | 80 | 1017.2 |
| 20260906163215 | 77 | 112 | 3.0 | 4.0 | 0.00 | 0.00 | 0.00 | 81 | 1017.2 |
| 20260906162224 | 77 | 155 | 4.0 | 8.0 | 0.00 | 0.00 | 0.00 | 83 | 1017.3 |
| 20260906161216 | 75 | 160 | 5.0 | 9.0 | 0.00 | 0.00 | 0.00 | 84 | 1017.3 |
| 20260906160224 | 76 | 143 | 4.0 | 9.0 | 0.00 | 0.00 | 0.00 | 85 | 1017.8 |
| 20260906155216 | 76 | 206 | 2.0 | 6.0 | 0.00 | 0.00 | 0.00 | 85 | 1017.7 |
| 20260906154223 | 75 | 177 | 1.0 | 3.0 | 0.00 | 0.00 | 0.00 | 86 | 1017.3 |
| 20260906153216 | 75 | 175 | 3.0 | 7.0 | 0.00 | 0.00 | 0.00 | 86 | 1017.7 |
| 20260906152224 | 76 | 172 | 3.0 | 4.0 | 0.00 | 0.00 | 0.00 | 86 | 1017.7 |
| 20260906151216 | 74 | 180 | 4.0 | 9.0 | 0.00 | 0.00 | 0.00 | 88 | 1017.6 |
| 20260906150224 | 75 | 172 | 7.0 | 9.0 | 0.00 | 0.00 | 0.00 | 87 | 1017.6 |
| 20260906145215 | 75 | 163 | 5.0 | 9.0 | 0.00 | 0.00 | 0.00 | 88 | 1017.4 |
| 20260906144224 | 75 | 180 | 6.0 | 8.0 | 0.00 | 0.00 | 0.00 | 87 | 1017.4 |
| 20260906143216 | 74 | 153 | 5.0 | 8.0 | 0.00 | 0.00 | 0.00 | 88 | 1017.4 |
| 20260906142224 | 74 | 171 | 3.0 | 7.0 | 0.00 | 0.00 | 0.00 | 89 | 1017.5 |
| 20260906141236 | 73 | 171 | 4.0 | 7.0 | 0.00 | 0.00 | 0.00 | 91 | 1017.5 |
| 20260906140224 | 72 | 188 | 3.0 | 6.0 | 0.00 | 0.00 | 0.00 | 94 | 1017.5 |
| 20260906135216 | 72 | 168 | 2.0 | 6.0 | 0.00 | 0.00 | 0.00 | 95 | 1017.5 |
| 20260906134224 | 71 | 162 | 2.0 | 2.0 | 0.00 | 0.00 | 0.00 | 98 | 1017.4 |
| 20260906133216 | 70 | 158 | 2.0 | 3.0 | 0.00 | 0.00 | 0.00 | 99 | 1017.1 |
| 20260906132224 | 69 | 145 | 2.0 | 3.0 | 0.00 | 0.00 | 0.00 | 99 | 1017.2 |
| 20260906131216 | 68 | 126 | 1.0 | 3.0 | 0.00 | 0.00 | 0.00 | 99 | 1017.2 |
| 20260906130244 | 68 | 0.0 | 0.0 | 0.00 | 0.00 | 0.00 | 99 | 1017.2 | |
| 20260906125216 | 68 | 136 | 1.0 | 3.0 | 0.00 | 0.00 | 0.00 | 99 | 1017.2 |
| 20260906124224 | 67 | 179 | 1.0 | 2.0 | 0.00 | 0.00 | 0.00 | 99 | 1017.2 |
| 20260906123216 | 67 | 167 | 0.0 | 2.0 | 0.00 | 0.00 | 0.00 | 99 | 1017.3 |
| 20260906122244 | 66 | 0.0 | 0.0 | 0.00 | 0.00 | 0.00 | 99 | 1017.2 | |
| 20260906121216 | 66 | 145 | 0.0 | 1.0 | 0.00 | 0.00 | 0.00 | 99 | 1017.0 |
| 20260906120224 | 66 | 0.0 | 0.0 | 0.00 | 0.00 | 0.00 | 99 | 1017.0 | |
| 20260906115236 | 66 | 0.0 | 0.0 | 0.00 | 0.00 | 0.00 | 99 | 1016.8 | |
| 20260906114224 | 66 | 0.0 | 0.0 | 0.00 | 0.00 | 0.00 | 99 | 1016.9 | |
| 20260906113216 | 66 | 0.0 | 0.0 | 0.00 | 0.00 | 0.00 | 99 | 1016.8 | |
| 20260906112224 | 66 | 174 | 0.0 | 1.0 | 0.00 | 0.00 | 0.00 | 99 | 1016.7 |
| 20260906111216 | 66 | 0.0 | 0.0 | 0.00 | 0.00 | 0.00 | 99 | 1016.5 | |
| 20260906110244 | 66 | 0.0 | 0.0 | 0.00 | 0.00 | 0.00 | 99 | 1016.4 | |
| 20260906105236 | 66 | 0.0 | 0.0 | 0.00 | 0.00 | 0.00 | 99 | 1016.6 | |
| 20260906104244 | 66 | 0.0 | 0.0 | 0.00 | 0.00 | 0.00 | 99 | 1016.5 | |
| 20260906103216 | 66 | 0.0 | 0.0 | 0.00 | 0.00 | 0.00 | 99 | 1016.5 | |
| 20260906102224 | 66 | 0.0 | 0.0 | 0.00 | 0.00 | 0.00 | 99 | 1016.5 | |
| 20260906101216 | 66 | 0.0 | 0.0 | 0.00 | 0.00 | 0.00 | 99 | 1016.2 | |
| 20260906100224 | 67 | 0.0 | 0.0 | 0.00 | 0.00 | 0.00 | 99 | 1016.3 | |
| 20260906095216 | 67 | 0.0 | 0.0 | 0.00 | 0.00 | 0.00 | 99 | 1016.1 | |
| 20260906094224 | 67 | 154 | 0.0 | 1.0 | 0.00 | 0.00 | 0.00 | 99 | 1015.8 |
| 20260906093216 | 68 | 119 | 1.0 | 1.0 | 0.00 | 0.00 | 0.00 | 99 | 1015.7 |
| 20260906092244 | 68 | 176 | 1.0 | 1.0 | 0.00 | 0.00 | 0.00 | 99 | 1015.6 |
| 20260906091216 | 68 | 0.0 | 0.0 | 0.00 | 0.00 | 0.00 | 99 | 1015.6 | |
| 20260906090244 | 68 | 0.0 | 0.0 | 0.00 | 0.00 | 0.00 | 99 | 1015.6 | |
| 20260906085216 | 68 | 162 | 1.0 | 2.0 | 0.00 | 0.00 | 0.00 | 99 | 1015.6 |
| 20260906084224 | 68 | 151 | 1.0 | 1.0 | 0.00 | 0.00 | 0.00 | 99 | 1015.5 |
| 20260906083216 | 68 | 103 | 1.0 | 2.0 | 0.00 | 0.00 | 0.00 | 99 | 1015.5 |
| 20260906082224 | 68 | 131 | 0.0 | 2.0 | 0.00 | 0.00 | 0.00 | 99 | 1015.6 |
| 20260906081216 | 68 | 138 | 1.0 | 1.0 | 0.00 | 0.00 | 0.00 | 99 | 1015.7 |
| 20260906080245 | 68 | 125 | 0.0 | 1.0 | 0.00 | 0.00 | 0.00 | 99 | 1015.6 |
| 20260906075216 | 68 | 0.0 | 0.0 | 0.00 | 0.00 | 0.00 | 99 | 1015.6 | |
| 20260906074224 | 69 | 168 | 0.0 | 1.0 | 0.00 | 0.00 | 0.00 | 98 | 1015.8 |
| 20260906073216 | 69 | 123 | 0.0 | 1.0 | 0.00 | 0.00 | 0.00 | 98 | 1015.6 |
| 20260906072224 | 69 | 0.0 | 0.0 | 0.00 | 0.00 | 0.00 | 97 | 1015.6 | |
| 20260906071217 | 69 | 0.0 | 0.0 | 0.00 | 0.00 | 0.00 | 97 | 1016.0 | |
| 20260906070224 | 69 | 0.0 | 0.0 | 0.00 | 0.00 | 0.00 | 97 | 1015.9 | |
| 20260906065216 | 69 | 131 | 1.0 | 1.0 | 0.00 | 0.00 | 0.00 | 97 | 1015.9 |
| 20260906064244 | 69 | 0.0 | 0.0 | 0.00 | 0.00 | 0.00 | 98 | 1016.0 | |
| 20260906063216 | 69 | 169 | 0.0 | 1.0 | 0.00 | 0.00 | 0.00 | 98 | 1016.1 |
| 20260906062225 | 69 | 0.0 | 0.0 | 0.00 | 0.00 | 0.00 | 98 | 1016.1 | |
| 20260906061217 | 69 | 173 | 0.0 | 1.0 | 0.00 | 0.00 | 0.00 | 98 | 1015.9 |
| 20260906060224 | 69 | 171 | 0.0 | 1.0 | 0.00 | 0.00 | 0.00 | 97 | 1016.0 |
| 20260906055216 | 69 | 117 | 0.0 | 1.0 | 0.00 | 0.00 | 0.00 | 97 | 1016.0 |
| 20260906054245 | 69 | 0.0 | 0.0 | 0.00 | 0.00 | 0.00 | 97 | 1016.1 | |
| 20260906053217 | 69 | 145 | 0.0 | 1.0 | 0.00 | 0.00 | 0.00 | 97 | 1016.0 |
| 20260906052225 | 69 | 0.0 | 0.0 | 0.00 | 0.00 | 0.00 | 96 | 1016.1 | |
| 20260906051217 | 69 | 145 | 1.0 | 1.0 | 0.00 | 0.00 | 0.00 | 96 | 1016.1 |
| 20260906050224 | 69 | 0.0 | 0.0 | 0.00 | 0.00 | 0.00 | 95 | 1015.9 | |
| 20260906045237 | 70 | 0.0 | 0.0 | 0.00 | 0.00 | 0.00 | 94 | 1016.0 | |
| 20260906044225 | 70 | 0.0 | 0.0 | 0.00 | 0.00 | 0.00 | 93 | 1016.0 | |
| 20260906043217 | 71 | 0.0 | 0.0 | 0.00 | 0.00 | 0.00 | 93 | 1016.1 | |
| 20260906042225 | 71 | 0.0 | 0.0 | 0.00 | 0.00 | 0.00 | 91 | 1016.2 | |
| 20260906041217 | 71 | 0.0 | 0.0 | 0.00 | 0.00 | 0.00 | 91 | 1016.3 | |
| 20260906040225 | 72 | 0.0 | 0.0 | 0.00 | 0.00 | 0.00 | 89 | 1016.0 | |
| 20260906035217 | 72 | 191 | 0.0 | 1.0 | 0.00 | 0.00 | 0.00 | 89 | 1016.0 |
| 20260906034225 | 72 | 177 | 1.0 | 1.0 | 0.00 | 0.00 | 0.00 | 88 | 1016.2 |
| 20260906033217 | 72 | 151 | 0.0 | 1.0 | 0.00 | 0.00 | 0.00 | 88 | 1016.3 |
| 20260906032225 | 73 | 0.0 | 0.0 | 0.00 | 0.00 | 0.00 | 87 | 1016.3 | |
| 20260906031217 | 73 | 0.0 | 0.0 | 0.00 | 0.00 | 0.00 | 85 | 1016.5 | |
| 20260906030245 | 74 | 177 | 0.0 | 1.0 | 0.00 | 0.00 | 0.00 | 84 | 1016.6 |
| 20260906025237 | 74 | 96 | 0.0 | 1.0 | 0.00 | 0.00 | 0.00 | 84 | 1016.3 |
| 20260906024225 | 75 | 0.0 | 0.0 | 0.00 | 0.00 | 0.00 | 83 | 1016.4 | |
| 20260906023217 | 75 | 132 | 1.0 | 1.0 | 0.00 | 0.00 | 0.00 | 83 | 1016.2 |
| 20260906022225 | 75 | 170 | 0.0 | 1.0 | 0.00 | 0.00 | 0.00 | 83 | 1016.0 |
| 20260906021217 | 75 | 147 | 0.0 | 1.0 | 0.00 | 0.00 | 0.00 | 83 | 1015.9 |
| 20260906020225 | 75 | 132 | 1.0 | 1.0 | 0.00 | 0.00 | 0.00 | 82 | 1015.5 |
| 20260906015217 | 75 | 0.0 | 0.0 | 0.00 | 0.00 | 0.00 | 82 | 1015.1 | |
| 20260906014245 | 76 | 141 | 1.0 | 1.0 | 0.00 | 0.00 | 0.00 | 80 | 1014.9 |
| 20260906013217 | 76 | 151 | 1.0 | 2.0 | 0.00 | 0.00 | 0.00 | 80 | 1014.7 |
| 20260906012225 | 77 | 165 | 1.0 | 2.0 | 0.00 | 0.00 | 0.00 | 79 | 1014.5 |
| 20260906011217 | 77 | 149 | 1.0 | 2.0 | 0.00 | 0.00 | 0.00 | 78 | 1014.4 |
| 20260906010225 | 78 | 189 | 0.0 | 2.0 | 0.00 | 0.00 | 0.00 | 77 | 1014.1 |
| 20260906005217 | 78 | 161 | 1.0 | 3.0 | 0.00 | 0.00 | 0.00 | 77 | 1013.8 |
| 20260906004225 | 79 | 165 | 2.0 | 3.0 | 0.00 | 0.00 | 0.00 | 76 | 1013.7 |
| 20260906003257 | 80 | 148 | 1.0 | 3.0 | 0.00 | 0.00 | 0.00 | 74 | 1013.6 |
| 20260906002225 | 80 | 173 | 2.0 | 3.0 | 0.00 | 0.00 | 0.00 | 72 | 1013.3 |
| 20260906001217 | 81 | 104 | 2.0 | 3.0 | 0.00 | 0.00 | 0.00 | 71 | 1012.9 |
| 20260906000226 | 82 | 170 | 1.0 | 3.0 | 0.00 | 0.00 | 0.00 | 70 | 1013.3 |
| 20260905235217 | 82 | 182 | 1.0 | 2.0 | 0.00 | 0.00 | 0.00 | 69 | 1013.5 |
| 20260905234225 | 82 | 136 | 2.0 | 3.0 | 0.00 | 0.00 | 0.00 | 68 | 1013.6 |
| 20260905233217 | 83 | 144 | 3.0 | 4.0 | 0.00 | 0.00 | 0.00 | 68 | 1013.4 |
| 20260905232245 | 83 | 78 | 3.0 | 7.0 | 0.00 | 0.00 | 0.00 | 68 | 1013.4 |
| 20260905231218 | 83 | 102 | 2.0 | 4.0 | 0.00 | 0.00 | 0.00 | 69 | 1013.4 |
| 20260905230245 | 83 | 113 | 2.0 | 4.0 | 0.00 | 0.00 | 0.00 | 69 | 1013.5 |
| 20260905225217 | 83 | 63 | 4.0 | 9.0 | 0.00 | 0.00 | 0.00 | 69 | 1013.0 |
| 20260905224225 | 83 | 57 | 2.0 | 7.0 | 0.00 | 0.00 | 0.00 | 70 | 1013.0 |
| 20260905223257 | 83 | 203 | 1.0 | 3.0 | 0.00 | 0.00 | 0.00 | 70 | 1013.3 |
| 20260905222225 | 84 | 72 | 3.0 | 4.0 | 0.00 | 0.00 | 0.00 | 69 | 1013.3 |
| 20260905221218 | 84 | 217 | 1.0 | 3.0 | 0.00 | 0.00 | 0.00 | 69 | 1013.5 |
| 20260905220225 | 84 | 49 | 5.0 | 8.0 | 0.00 | 0.00 | 0.00 | 69 | 1013.5 |
| 20260905215217 | 84 | 108 | 5.0 | 8.0 | 0.00 | 0.00 | 0.00 | 67 | 1013.5 |
| 20260905214225 | 84 | 158 | 3.0 | 4.0 | 0.00 | 0.00 | 0.00 | 68 | 1013.5 |
| 20260905213217 | 83 | 81 | 4.0 | 7.0 | 0.00 | 0.00 | 0.00 | 69 | 1013.5 |
| 20260905212226 | 84 | 75 | 5.0 | 7.0 | 0.00 | 0.00 | 0.00 | 69 | 1013.7 |
| 20260905211218 | 84 | 75 | 4.0 | 8.0 | 0.00 | 0.00 | 0.00 | 70 | 1013.9 |
| 20260905210225 | 84 | 86 | 3.0 | 6.0 | 0.00 | 0.00 | 0.00 | 70 | 1014.1 |
| 20260905205217 | 83 | 65 | 2.0 | 4.0 | 0.00 | 0.00 | 0.00 | 73 | 1014.3 |
| 20260905204225 | 83 | 357 | 4.0 | 6.0 | 0.00 | 0.00 | 0.00 | 72 | 1014.4 |
| 20260905203218 | 83 | 182 | 2.0 | 2.0 | 0.00 | 0.00 | 0.00 | 72 | 1014.7 |
| 20260905202226 | 82 | 179 | 2.0 | 4.0 | 0.00 | 0.00 | 0.00 | 73 | 1014.8 |
| 20260905201217 | 82 | 46 | 3.0 | 4.0 | 0.00 | 0.00 | 0.00 | 74 | 1015.1 |
| 20260905200225 | 82 | 89 | 1.0 | 2.0 | 0.00 | 0.00 | 0.00 | 73 | 1015.3 |
| 20260905195217 | 82 | 49 | 2.0 | 3.0 | 0.00 | 0.00 | 0.00 | 73 | 1015.3 |
| 20260905194226 | 81 | 167 | 2.0 | 2.0 | 0.00 | 0.00 | 0.00 | 75 | 1015.6 |
| 20260905193218 | 81 | 213 | 2.0 | 2.0 | 0.00 | 0.00 | 0.00 | 76 | 1015.5 |
| 20260905192226 | 80 | 177 | 1.0 | 2.0 | 0.00 | 0.00 | 0.00 | 78 | 1015.5 |
| 20260905191217 | 80 | 179 | 1.0 | 2.0 | 0.00 | 0.00 | 0.00 | 78 | 1015.6 |
| 20260905190225 | 79 | 170 | 3.0 | 4.0 | 0.00 | 0.00 | 0.00 | 78 | 1015.6 |
| 20260905185218 | 79 | 192 | 3.0 | 4.0 | 0.00 | 0.00 | 0.00 | 79 | 1015.7 |
| 20260905184246 | 77 | 182 | 3.0 | 3.0 | 0.00 | 0.00 | 0.00 | 82 | 1015.7 |